This demonstration page uses our WeatherBlox Daily Observations layout. Learn more.

41.55636, -103.73856

Hourly Observations for April 3, 2015

Temp ( °F °C ) Dew Point ( °F °C ) Humidity (%) Winds ( mph kmh ) Pressure ( in mb ) Visibility ( mi km ) Precip ( " mm )
12:53 am 00:53 Clear 30 -1.1 18 -7.8 61 61 NNE 10 17 30.25 1025 10 16.0934 0 0
1:53 am 01:53 Clear 28 -2.2 17 -8.3 63 63 Calm 30.28 1025 10 16.0934 0 0
2:53 am 02:53 Clear 28 -2.2 17 -8.3 63 63 Calm 30.32 1027 10 16.0934 0 0
3:53 am 03:53 Clear 22 -5.6 15 -9.4 75 75 N 5 7 30.34 1027 10 16.0934 0 0
4:53 am 04:53 Mostly Clear 22 -5.6 15 -9.4 75 75 N 7 11 30.35 1028 10 16.0934 0 0
5:53 am 05:53 Clear 21 -6.1 16 -8.9 81 81 Calm 30.36 1028 10 16.0934 0 0
6:53 am 06:53 Cloudy 24 -4.4 18 -7.8 77 77 Calm 30.36 1028 10 16.0934 0 0
7:53 am 07:53 Mostly Cloudy 27 -2.8 19 -7.2 72 72 W 3 6 30.37 1029 10 16.0934 0 0
8:53 am 08:53 Mostly Sunny 33 0.6 20 -6.7 58 58 W 8 13 30.37 1028 10 16.0934 0 0
9:53 am 09:53 Sunny 39 3.9 23 -5 53 53 W 6 9 30.36 1028 10 16.0934 0 0
10:53 am 10:53 Sunny 45 7.2 21 -6.1 39 39 WNW 14 22 30.34 1027 10 16.0934 0 0
11:53 am 11:53 Partly Cloudy 47 8.3 17 -8.3 30 30 NW 14 22 30.31 1027 10 16.0934 0 0
12:53 pm 12:53 Partly Cloudy 50 10 15 -9.4 25 25 WSW 15 24 30.29 1026 10 16.0934 0 0
1:53 pm 13:53 Mostly Cloudy 52 11.1 16 -8.9 24 24 WSW 17 28 30.28 1025 10 16.0934 0 0
2:53 pm 14:53 Partly Cloudy 49 9.4 14 -10 25 25 WNW 12 19 30.27 1025 10 16.0934 0 0
3:53 pm 15:53 Partly Cloudy 51 10.6 12 -11.1 21 21 W 8 13 30.27 1025 10 16.0934 0 0
4:53 pm 16:53 Mostly Cloudy 53 11.7 11 -11.7 18 18 W 15 24 30.25 1024 10 16.0934 0 0
5:53 pm 17:53 Mostly Sunny 50 10 11 -11.7 21 21 W 15 24 30.25 1024 10 16.0934 0 0
6:53 pm 18:53 Sunny 49 9.4 13 -10.6 23 23 WSW 8 13 30.24 1024 10 16.0934 0 0
7:53 pm 19:53 Clear 41 5 12 -11.1 30 30 WSW 7 11 30.27 1025 10 16.0934 0 0
8:53 pm 20:53 Clear 42 5.6 12 -11.1 29 29 undefined N/A 30.26 1025 10 16.0934 0 0
9:53 pm 21:53 Clear 38 3.3 13 -10.6 36 36 NW 8 13 30.27 1025 10 16.0934 0 0
10:53 pm 22:53 Clear 31 -0.6 13 -10.6 47 47 N 8 13 30.27 1025 10 16.0934 0 0
11:53 pm 23:53 Clear 32 0 13 -10.6 45 45 SSW 3 6 30.27 1025 10 16.0934 0 0

Powered by AerisWeather